Gallup, NM

9:19 PM MDT on August 31, 2016 (GMT -0600)
Gallup Municipal

Weather History for KGUP - April, 2014

Change the Weather History Date:

Monday, April 28, 2014

  Actual Average Record
Temperature  
Mean Temperature 42 °F -  
Max Temperature 57 °F 65 °F 83 °F (1992)
Min Temperature 30 °F 28 °F 18 °F (1991)
Degree Days  
Heating Degree Days 22    
Moisture  
Dew Point 18 °F    
Average Humidity 39    
Maximum Humidity 72    
Minimum Humidity 20    
Precipitation  
Precipitation 0.00 in - - ()
Sea Level Pressure  
Sea Level Pressure 29.90 in    
Wind  
Wind Speed 9 mph (NW)    
Max Wind Speed 24 mph    
Max Gust Speed 32 mph    
Visibility 10 miles    
Events      
Averages and records for this station are not official NWS values.
T = Trace of Precipitation, MM = Missing Value Source: NWS Daily Summary

Daily Weather History Graph

Daily Weather History Graph

Search for Another Location

Airport or City:

Trip Planner

Search our weather history database for the weather conditions in past years. The results will help you decide how hot, cold, wet, or windy it might be!

Date:

Astronomy

Apr. 28, 2014 Rise Set
Actual Time 6:26 AM MDT 7:59 PM MDT
Civil Twilight 5:59 AM MDT 8:26 PM MDT
Nautical Twilight 5:27 AM MDT 8:58 PM MDT
Astronomical Twilight 4:53 AM MDT 9:33 PM MDT
Moon 6:04 AM MDT (4/28) 7:41 PM MDT (4/28)
Length of Visible Light 14h 26m
Length of Day
13h 32m
Waning Crescent, 0% of the Moon is Illuminated
Apr 28
Waning Crescent
Apr 29
New
May 6
First Quarter
May 14
Full
May 21
Last Quarter

Hourly Weather History & Observations

Time (MDT) Temp. Windchill Dew Point Humidity Pressure Visibility Wind Dir Wind Speed Gust Speed Precip Events Conditions
2:53 AM 30.9 °F 27.5 °F 19.9 °F 64% 29.83 in 10.0 mi ESE 3.5 mph - N/A   Clear
4:53 AM 30.9 °F 26.2 °F 21.0 °F 67% 29.83 in 10.0 mi East 4.6 mph - N/A   Clear
5:53 AM 30.0 °F - 21.9 °F 72% 29.84 in 10.0 mi Calm Calm - N/A   Overcast
6:53 AM 30.0 °F 24.1 °F 21.9 °F 72% 29.89 in 10.0 mi NE 5.8 mph - N/A   Clear
7:53 AM 37.0 °F - 26.1 °F 65% 29.86 in 10.0 mi Calm Calm - N/A   Mostly Cloudy
8:53 AM 42.1 °F 39.2 °F 25.0 °F 51% 29.86 in 10.0 mi ENE 4.6 mph - N/A   Overcast
9:53 AM 48.9 °F - 24.1 °F 38% 29.81 in 10.0 mi WNW 15.0 mph 26.5 mph N/A   Mostly Cloudy
10:53 AM 51.1 °F - 24.1 °F 35% 29.82 in 10.0 mi West 20.7 mph - N/A   Mostly Cloudy
11:53 AM 52.0 °F - 23.0 °F 32% 29.86 in 10.0 mi NW 24.2 mph 32.2 mph N/A   Mostly Cloudy
12:53 PM 52.0 °F - 23.0 °F 32% 29.88 in 10.0 mi NW 24.2 mph 29.9 mph N/A   Mostly Cloudy
1:23 PM 52.0 °F - 21.0 °F 30% 30.00 in 10.0 mi WNW 19.6 mph 28.8 mph N/A   Overcast
1:53 PM 53.1 °F - 21.0 °F 29% 29.88 in 10.0 mi NNW 17.3 mph 27.6 mph N/A   Overcast
4:53 PM 55.9 °F - 16.0 °F 21% 29.88 in 10.0 mi WNW 20.7 mph 27.6 mph N/A   Mostly Cloudy
5:53 PM 55.0 °F - 15.1 °F 21% 29.91 in 10.0 mi WNW 17.3 mph 25.3 mph N/A   Mostly Cloudy
6:53 PM 53.1 °F - 12.9 °F 20% 29.94 in 10.0 mi NW 18.4 mph 23.0 mph N/A   Clear
7:53 PM 48.9 °F - 9.0 °F 20% 29.95 in 10.0 mi NW 11.5 mph - N/A   Clear
9:53 PM 42.1 °F 38.4 °F 6.1 °F 23% 29.97 in 10.0 mi NNW 5.8 mph - N/A   Clear
10:53 PM 41.0 °F 39.0 °F 6.1 °F 24% 30.00 in 10.0 mi NNW 3.5 mph - N/A   Clear
11:53 PM 37.9 °F 35.5 °F 6.1 °F 27% 30.04 in 10.0 mi WNW 3.5 mph - N/A   Clear